星链-11728 (STARLINK-11728)

导读

STARLINK-11728是美国于2025年6月10日发射的星链系列卫星,星链项目是由太空探索技术公司SpaceX打造的大规模低轨卫星互联网星座,通过部署海量低轨卫星,为全球提供高速宽带网络服务,该卫星入轨后将补充星链星座的网络覆盖能力,助力星座实现更稳定的全球互联服务。

基本信息
目录编号:
64323
目录名称:
STARLINK-11728
国际标识:
2025-124G
轨道中心:
EARTH
卫星名称:
星链-11728
卫星全名:
星链-11728 (STARLINK-11728)
卫星状态:
在轨 (已飞行452 天)
发射日期:
2025-06-10 UTC
国别 :
美国 (US)
星等 :
--
轨道信息
数据来源 国际轨道数据
星历时间: 2026-09-05T14:43:59+0800
7小时前
查看轨道信息
半长轴: 6734.605km
偏心率: 0.0001589
轨道倾角: 42.999°
近地点辐角 272.405°
升交点赤经 26.317°
平近点角 87.664°
近地点: 355.397km
远地点: 357.539km
周期: 91.670分钟
每日圈数: 15.708497
详细信息
固有亮度:
5
最大亮度:
2.5
卫星平台:
Starlink V1.0
覆盖范围:
全球
运营商:
太空探索技术公司
运营商所在国:
美国
制造商(研发单位):
太空探索技术公司
制造商所在国:
美国
使用方式:
暂无
卫星简介
Starlink 计划是 SpaceX 推出的全球卫星互联网项目,通过发射低轨道卫星,为全球尤其是偏远地区提供高速、低延迟的互联网服务。自 2019 年起,Starlink 已部署数千颗卫星,旨在缩小全球数字鸿沟,推动互联网普及。该项目还为军事、航空等行业提供通信支持,带来广泛经济效益。
2D轨道图
3D轨道图
轨道高度分析图
轨道倾角分析图
轨道综合分析图
查看轨道综合分析图
交会数据列表
事件ID 空间交会对象 最接近时刻(TCA) 交会距离 交会风险概率(CRP) 交会风险指数(CRI) 操作
CDM_260907-140006-306106-432321
2026-09-07T
14:00:23+0000
2.084 km
极远距离
6.495123E-7 极低风险 0.31